| State | Missouri | Latest | Low (481 cfs) | |
| River | Big Piney River | Rating | Observed | Estimated |
| Updated | 2026-05-10 12:00 (52 minutes ago) | Flood - The river is flooding. Obstacles can be treacherous or deadly. The river should be avoided at this stage for casual trips and definitely for the inexperienced. Trips should be attempted only with protective gear and equipment.Flood | (none) | 3182 |
| Discharge | 481 cfs (median: 716 cfs) | High - The river is high and potentially dangerous, especially for the young and / or inexperienced. Normal stream obstacles are sometimes difficult to navigate. Extended distances can be attempted, but canoe travel may not be advisable.High | (none) | 1610 |
| Height | 2.67 feet | Good - Conditions are ideal for a canoe or kayak. Boats typically will drag on fewer than one-quarter of riffles, if at all, and portages are unnecessary or rare. Normal float lengths can be attempted without a problem.Good | (none) | 767 |
| Trend | Rising (falling over 24 hours) | Low - River is low but can still be floated. Some riffles are okay but most come with significant dragging and might need a portage. Float lengths should be reduced to accommodate low flow, dragging, and portages.Low | (none) | 448 |
| USGS | USGS Site ( Duck Duck Go Maps) | Poor - River is too low to float comfortably. Most or all riffles will drag or must be portaged and some obstacles (such as slick shelf rock) cause undue problems. Avoid the river at this stage for casual paddling trips.Poor | (none) | 225 |
| Date | Start | End | Distance | Condition | Discharge | Height | Fishing | Details |
|---|
A total of 0 rows are displayed.
BLG - Bluegill
CCF - Channel Catfish
CP - Chain Pickerel
FWD - Freshwater Drum
GSF - Green Sunfish
KSB - Kentucky Spotted Bass
LMB - Largemouth Bass
LSF - Longear Sunfish
RB - Rock Bass / Goggle Eye
RSF - Redear Sunfish
RT - Rainbow Trout
SMB - Smallmouth Bass
WB - White Bass
WF - Whitefish
WL - WalleyeThe classic River Trips application is still available for use. It is updated with the new system using a data retrofit. It is no longer maintained. The original River Trips application is no longer updated (as of 1 Dec 2016) but can be checked for errors or for the condition of the data before it was converted to the new system.
| Observation | Height | Discharge | Maximum Discharge | Minimum Discharge | Mean Discharge | P05 | P10 | P20 | P25 | P50 (Median) | P75 | P80 | P90 | P95 |
|---|---|---|---|---|---|---|---|---|---|---|---|---|---|---|
| 2026-05-10 12:00 | 2.67 | 481 | 6390 (2002) | 166 (2000) | 1300 | 167 | 234 | 372 | 519 | 716 | 1930 | 2000 | 2770 | 5200 |
| 2026-05-10 11:00 | 2.66 | 477 | 6390 (2002) | 166 (2000) | 1300 | 167 | 234 | 372 | 519 | 716 | 1930 | 2000 | 2770 | 5200 |
| 2026-05-10 10:00 | 2.67 | 481 | 6390 (2002) | 166 (2000) | 1300 | 167 | 234 | 372 | 519 | 716 | 1930 | 2000 | 2770 | 5200 |
| 2026-05-10 09:00 | 2.68 | 485 | 6390 (2002) | 166 (2000) | 1300 | 167 | 234 | 372 | 519 | 716 | 1930 | 2000 | 2770 | 5200 |
| 2026-05-10 08:00 | 2.68 | 485 | 6390 (2002) | 166 (2000) | 1300 | 167 | 234 | 372 | 519 | 716 | 1930 | 2000 | 2770 | 5200 |
| 2026-05-10 07:00 | 2.69 | 490 | 6390 (2002) | 166 (2000) | 1300 | 167 | 234 | 372 | 519 | 716 | 1930 | 2000 | 2770 | 5200 |
| 2026-05-10 06:00 | 2.69 | 490 | 6390 (2002) | 166 (2000) | 1300 | 167 | 234 | 372 | 519 | 716 | 1930 | 2000 | 2770 | 5200 |
| 2026-05-10 05:00 | 2.70 | 494 | 6390 (2002) | 166 (2000) | 1300 | 167 | 234 | 372 | 519 | 716 | 1930 | 2000 | 2770 | 5200 |
| 2026-05-10 04:00 | 2.69 | 490 | 6390 (2002) | 166 (2000) | 1300 | 167 | 234 | 372 | 519 | 716 | 1930 | 2000 | 2770 | 5200 |
| 2026-05-10 03:00 | 2.70 | 494 | 6390 (2002) | 166 (2000) | 1300 | 167 | 234 | 372 | 519 | 716 | 1930 | 2000 | 2770 | 5200 |
| 2026-05-10 02:00 | 2.69 | 490 | 6390 (2002) | 166 (2000) | 1300 | 167 | 234 | 372 | 519 | 716 | 1930 | 2000 | 2770 | 5200 |
| 2026-05-10 01:00 | 2.70 | 494 | 6390 (2002) | 166 (2000) | 1300 | 167 | 234 | 372 | 519 | 716 | 1930 | 2000 | 2770 | 5200 |
| 2026-05-10 00:00 | 2.70 | 494 | 6390 (2002) | 166 (2000) | 1300 | 167 | 234 | 372 | 519 | 716 | 1930 | 2000 | 2770 | 5200 |
| 2026-05-09 23:00 | 2.70 | 494 | 6390 (2002) | 166 (2000) | 1300 | 167 | 234 | 372 | 519 | 716 | 1930 | 2000 | 2770 | 5200 |
| 2026-05-09 22:00 | 2.72 | 502 | 32300 (2002) | 168 (2000) | 2340 | 168 | 238 | 349 | 389 | 797 | 1960 | 2270 | 3020 | 22400 |
| 2026-05-09 21:00 | 2.71 | 498 | 32300 (2002) | 168 (2000) | 2340 | 168 | 238 | 349 | 389 | 797 | 1960 | 2270 | 3020 | 22400 |
| 2026-05-09 20:00 | 2.72 | 502 | 32300 (2002) | 168 (2000) | 2340 | 168 | 238 | 349 | 389 | 797 | 1960 | 2270 | 3020 | 22400 |
| 2026-05-09 19:00 | 2.72 | 502 | 32300 (2002) | 168 (2000) | 2340 | 168 | 238 | 349 | 389 | 797 | 1960 | 2270 | 3020 | 22400 |
| 2026-05-09 18:00 | 2.72 | 502 | 32300 (2002) | 168 (2000) | 2340 | 168 | 238 | 349 | 389 | 797 | 1960 | 2270 | 3020 | 22400 |
| 2026-05-09 17:00 | 2.72 | 502 | 32300 (2002) | 168 (2000) | 2340 | 168 | 238 | 349 | 389 | 797 | 1960 | 2270 | 3020 | 22400 |
| 2026-05-09 16:00 | 2.72 | 502 | 32300 (2002) | 168 (2000) | 2340 | 168 | 238 | 349 | 389 | 797 | 1960 | 2270 | 3020 | 22400 |
| 2026-05-09 15:00 | 2.73 | 507 | 32300 (2002) | 168 (2000) | 2340 | 168 | 238 | 349 | 389 | 797 | 1960 | 2270 | 3020 | 22400 |
| 2026-05-09 14:00 | 2.75 | 516 | 32300 (2002) | 168 (2000) | 2340 | 168 | 238 | 349 | 389 | 797 | 1960 | 2270 | 3020 | 22400 |
| 2026-05-09 13:00 | 2.73 | 507 | 32300 (2002) | 168 (2000) | 2340 | 168 | 238 | 349 | 389 | 797 | 1960 | 2270 | 3020 | 22400 |
| 2026-05-09 12:00 | 2.75 | 516 | 32300 (2002) | 168 (2000) | 2340 | 168 | 238 | 349 | 389 | 797 | 1960 | 2270 | 3020 | 22400 |
| 2026-05-09 11:00 | 2.75 | 516 | 32300 (2002) | 168 (2000) | 2340 | 168 | 238 | 349 | 389 | 797 | 1960 | 2270 | 3020 | 22400 |
| 2026-05-09 10:00 | 2.76 | 520 | 32300 (2002) | 168 (2000) | 2340 | 168 | 238 | 349 | 389 | 797 | 1960 | 2270 | 3020 | 22400 |
| 2026-05-09 09:00 | 2.75 | 516 | 32300 (2002) | 168 (2000) | 2340 | 168 | 238 | 349 | 389 | 797 | 1960 | 2270 | 3020 | 22400 |
| 2026-05-09 08:00 | 2.76 | 520 | 32300 (2002) | 168 (2000) | 2340 | 168 | 238 | 349 | 389 | 797 | 1960 | 2270 | 3020 | 22400 |
| 2026-05-09 07:00 | 2.75 | 516 | 32300 (2002) | 168 (2000) | 2340 | 168 | 238 | 349 | 389 | 797 | 1960 | 2270 | 3020 | 22400 |
| 2026-05-09 06:00 | 2.75 | 516 | 32300 (2002) | 168 (2000) | 2340 | 168 | 238 | 349 | 389 | 797 | 1960 | 2270 | 3020 | 22400 |
| 2026-05-09 05:00 | 2.76 | 520 | 32300 (2002) | 168 (2000) | 2340 | 168 | 238 | 349 | 389 | 797 | 1960 | 2270 | 3020 | 22400 |
| 2026-05-09 04:00 | 2.76 | 520 | 32300 (2002) | 168 (2000) | 2340 | 168 | 238 | 349 | 389 | 797 | 1960 | 2270 | 3020 | 22400 |
| 2026-05-09 03:00 | 2.75 | 516 | 32300 (2002) | 168 (2000) | 2340 | 168 | 238 | 349 | 389 | 797 | 1960 | 2270 | 3020 | 22400 |
| 2026-05-09 02:00 | 2.77 | 524 | 32300 (2002) | 168 (2000) | 2340 | 168 | 238 | 349 | 389 | 797 | 1960 | 2270 | 3020 | 22400 |
| 2026-05-09 01:00 | 2.77 | 524 | 32300 (2002) | 168 (2000) | 2340 | 168 | 238 | 349 | 389 | 797 | 1960 | 2270 | 3020 | 22400 |
| 2026-05-09 00:00 | 2.77 | 524 | 32300 (2002) | 168 (2000) | 2340 | 168 | 238 | 349 | 389 | 797 | 1960 | 2270 | 3020 | 22400 |
| 2026-05-08 23:00 | 2.78 | 529 | 32300 (2002) | 168 (2000) | 2340 | 168 | 238 | 349 | 389 | 797 | 1960 | 2270 | 3020 | 22400 |
| 2026-05-08 22:00 | 2.77 | 524 | 7090 (2002) | 171 (2000) | 1500 | 173 | 245 | 321 | 394 | 908 | 1980 | 2620 | 3770 | 6250 |
| 2026-05-08 21:00 | 2.75 | 516 | 7090 (2002) | 171 (2000) | 1500 | 173 | 245 | 321 | 394 | 908 | 1980 | 2620 | 3770 | 6250 |
| 2026-05-08 20:00 | 2.75 | 516 | 7090 (2002) | 171 (2000) | 1500 | 173 | 245 | 321 | 394 | 908 | 1980 | 2620 | 3770 | 6250 |
| 2026-05-08 19:00 | 2.74 | 511 | 7090 (2002) | 171 (2000) | 1500 | 173 | 245 | 321 | 394 | 908 | 1980 | 2620 | 3770 | 6250 |
| 2026-05-08 18:00 | 2.75 | 516 | 7090 (2002) | 171 (2000) | 1500 | 173 | 245 | 321 | 394 | 908 | 1980 | 2620 | 3770 | 6250 |
| 2026-05-08 17:00 | 2.76 | 520 | 7090 (2002) | 171 (2000) | 1500 | 173 | 245 | 321 | 394 | 908 | 1980 | 2620 | 3770 | 6250 |
| 2026-05-08 16:00 | 2.76 | 520 | 7090 (2002) | 171 (2000) | 1500 | 173 | 245 | 321 | 394 | 908 | 1980 | 2620 | 3770 | 6250 |
| 2026-05-08 15:00 | 2.75 | 516 | 7090 (2002) | 171 (2000) | 1500 | 173 | 245 | 321 | 394 | 908 | 1980 | 2620 | 3770 | 6250 |
| 2026-05-08 14:00 | 2.77 | 524 | 7090 (2002) | 171 (2000) | 1500 | 173 | 245 | 321 | 394 | 908 | 1980 | 2620 | 3770 | 6250 |
| 2026-05-08 13:00 | 2.77 | 524 | 7090 (2002) | 171 (2000) | 1500 | 173 | 245 | 321 | 394 | 908 | 1980 | 2620 | 3770 | 6250 |
| 2026-05-08 12:00 | 2.78 | 529 | 7090 (2002) | 171 (2000) | 1500 | 173 | 245 | 321 | 394 | 908 | 1980 | 2620 | 3770 | 6250 |
| 2026-05-08 11:00 | 2.78 | 529 | 7090 (2002) | 171 (2000) | 1500 | 173 | 245 | 321 | 394 | 908 | 1980 | 2620 | 3770 | 6250 |
| 2026-05-08 10:00 | 2.78 | 529 | 7090 (2002) | 171 (2000) | 1500 | 173 | 245 | 321 | 394 | 908 | 1980 | 2620 | 3770 | 6250 |
| 2026-05-08 09:00 | 2.78 | 529 | 7090 (2002) | 171 (2000) | 1500 | 173 | 245 | 321 | 394 | 908 | 1980 | 2620 | 3770 | 6250 |
| 2026-05-08 08:00 | 2.81 | 543 | 7090 (2002) | 171 (2000) | 1500 | 173 | 245 | 321 | 394 | 908 | 1980 | 2620 | 3770 | 6250 |
| 2026-05-08 07:00 | 2.80 | 538 | 7090 (2002) | 171 (2000) | 1500 | 173 | 245 | 321 | 394 | 908 | 1980 | 2620 | 3770 | 6250 |
| 2026-05-08 06:00 | 2.80 | 538 | 7090 (2002) | 171 (2000) | 1500 | 173 | 245 | 321 | 394 | 908 | 1980 | 2620 | 3770 | 6250 |
| 2026-05-08 05:00 | 2.80 | 538 | 7090 (2002) | 171 (2000) | 1500 | 173 | 245 | 321 | 394 | 908 | 1980 | 2620 | 3770 | 6250 |
| 2026-05-08 04:00 | 2.80 | 538 | 7090 (2002) | 171 (2000) | 1500 | 173 | 245 | 321 | 394 | 908 | 1980 | 2620 | 3770 | 6250 |
| 2026-05-08 03:00 | 2.81 | 543 | 7090 (2002) | 171 (2000) | 1500 | 173 | 245 | 321 | 394 | 908 | 1980 | 2620 | 3770 | 6250 |
| 2026-05-08 02:00 | 2.81 | 543 | 7090 (2002) | 171 (2000) | 1500 | 173 | 245 | 321 | 394 | 908 | 1980 | 2620 | 3770 | 6250 |
| 2026-05-08 01:00 | 2.81 | 543 | 7090 (2002) | 171 (2000) | 1500 | 173 | 245 | 321 | 394 | 908 | 1980 | 2620 | 3770 | 6250 |
| 2026-05-08 00:00 | 2.82 | 547 | 7090 (2002) | 171 (2000) | 1500 | 173 | 245 | 321 | 394 | 908 | 1980 | 2620 | 3770 | 6250 |
| 2026-05-07 23:00 | 2.82 | 547 | 7090 (2002) | 171 (2000) | 1500 | 173 | 245 | 321 | 394 | 908 | 1980 | 2620 | 3770 | 6250 |
| 2026-05-07 22:00 | 2.83 | 552 | 6320 (2022) | 176 (2000) | 1250 | 181 | 244 | 332 | 419 | 849 | 1820 | 1960 | 2660 | 5380 |
| 2026-05-07 21:00 | 2.84 | 556 | 6320 (2022) | 176 (2000) | 1250 | 181 | 244 | 332 | 419 | 849 | 1820 | 1960 | 2660 | 5380 |
| 2026-05-07 20:00 | 2.84 | 556 | 6320 (2022) | 176 (2000) | 1250 | 181 | 244 | 332 | 419 | 849 | 1820 | 1960 | 2660 | 5380 |
| 2026-05-07 19:00 | 2.84 | 556 | 6320 (2022) | 176 (2000) | 1250 | 181 | 244 | 332 | 419 | 849 | 1820 | 1960 | 2660 | 5380 |
| 2026-05-07 18:00 | 2.84 | 556 | 6320 (2022) | 176 (2000) | 1250 | 181 | 244 | 332 | 419 | 849 | 1820 | 1960 | 2660 | 5380 |
| 2026-05-07 17:00 | 2.87 | 571 | 6320 (2022) | 176 (2000) | 1250 | 181 | 244 | 332 | 419 | 849 | 1820 | 1960 | 2660 | 5380 |
| 2026-05-07 16:00 | 2.86 | 566 | 6320 (2022) | 176 (2000) | 1250 | 181 | 244 | 332 | 419 | 849 | 1820 | 1960 | 2660 | 5380 |
| 2026-05-07 15:00 | 2.88 | 575 | 6320 (2022) | 176 (2000) | 1250 | 181 | 244 | 332 | 419 | 849 | 1820 | 1960 | 2660 | 5380 |
| 2026-05-07 14:00 | 2.88 | 575 | 6320 (2022) | 176 (2000) | 1250 | 181 | 244 | 332 | 419 | 849 | 1820 | 1960 | 2660 | 5380 |
| 2026-05-07 13:00 | 2.88 | 575 | 6320 (2022) | 176 (2000) | 1250 | 181 | 244 | 332 | 419 | 849 | 1820 | 1960 | 2660 | 5380 |
| 2026-05-07 12:00 | 2.88 | 575 | 6320 (2022) | 176 (2000) | 1250 | 181 | 244 | 332 | 419 | 849 | 1820 | 1960 | 2660 | 5380 |
| 2026-05-07 11:00 | 2.88 | 575 | 6320 (2022) | 176 (2000) | 1250 | 181 | 244 | 332 | 419 | 849 | 1820 | 1960 | 2660 | 5380 |
| 2026-05-07 10:00 | 2.89 | 580 | 6320 (2022) | 176 (2000) | 1250 | 181 | 244 | 332 | 419 | 849 | 1820 | 1960 | 2660 | 5380 |
| 2026-05-07 09:00 | 2.88 | 575 | 6320 (2022) | 176 (2000) | 1250 | 181 | 244 | 332 | 419 | 849 | 1820 | 1960 | 2660 | 5380 |
| 2026-05-07 08:00 | 2.89 | 580 | 6320 (2022) | 176 (2000) | 1250 | 181 | 244 | 332 | 419 | 849 | 1820 | 1960 | 2660 | 5380 |
| 2026-05-07 07:00 | 2.89 | 580 | 6320 (2022) | 176 (2000) | 1250 | 181 | 244 | 332 | 419 | 849 | 1820 | 1960 | 2660 | 5380 |
| 2026-05-07 06:00 | 2.91 | 590 | 6320 (2022) | 176 (2000) | 1250 | 181 | 244 | 332 | 419 | 849 | 1820 | 1960 | 2660 | 5380 |
| 2026-05-07 05:00 | 2.91 | 590 | 6320 (2022) | 176 (2000) | 1250 | 181 | 244 | 332 | 419 | 849 | 1820 | 1960 | 2660 | 5380 |
| 2026-05-07 04:00 | 2.90 | 585 | 6320 (2022) | 176 (2000) | 1250 | 181 | 244 | 332 | 419 | 849 | 1820 | 1960 | 2660 | 5380 |
| 2026-05-07 03:00 | 2.92 | 595 | 6320 (2022) | 176 (2000) | 1250 | 181 | 244 | 332 | 419 | 849 | 1820 | 1960 | 2660 | 5380 |
| 2026-05-07 02:00 | 2.91 | 590 | 6320 (2022) | 176 (2000) | 1250 | 181 | 244 | 332 | 419 | 849 | 1820 | 1960 | 2660 | 5380 |
| 2026-05-07 01:00 | 2.92 | 595 | 6320 (2022) | 176 (2000) | 1250 | 181 | 244 | 332 | 419 | 849 | 1820 | 1960 | 2660 | 5380 |
| 2026-05-07 00:00 | 2.93 | 600 | 6320 (2022) | 176 (2000) | 1250 | 181 | 244 | 332 | 419 | 849 | 1820 | 1960 | 2660 | 5380 |
| 2026-05-06 23:00 | 2.93 | 600 | 6320 (2022) | 176 (2000) | 1250 | 181 | 244 | 332 | 419 | 849 | 1820 | 1960 | 2660 | 5380 |
| 2026-05-06 22:00 | 2.92 | 595 | 11700 (2022) | 169 (2000) | 1670 | 172 | 245 | 351 | 451 | 1010 | 1990 | 2270 | 3940 | 9360 |
| 2026-05-06 21:00 | 2.93 | 600 | 11700 (2022) | 169 (2000) | 1670 | 172 | 245 | 351 | 451 | 1010 | 1990 | 2270 | 3940 | 9360 |
| 2026-05-06 20:00 | 2.94 | 605 | 11700 (2022) | 169 (2000) | 1670 | 172 | 245 | 351 | 451 | 1010 | 1990 | 2270 | 3940 | 9360 |
| 2026-05-06 19:00 | 2.95 | 610 | 11700 (2022) | 169 (2000) | 1670 | 172 | 245 | 351 | 451 | 1010 | 1990 | 2270 | 3940 | 9360 |
| 2026-05-06 18:00 | 2.95 | 610 | 11700 (2022) | 169 (2000) | 1670 | 172 | 245 | 351 | 451 | 1010 | 1990 | 2270 | 3940 | 9360 |
| 2026-05-06 17:00 | 2.96 | 615 | 11700 (2022) | 169 (2000) | 1670 | 172 | 245 | 351 | 451 | 1010 | 1990 | 2270 | 3940 | 9360 |
| 2026-05-06 16:00 | 2.96 | 615 | 11700 (2022) | 169 (2000) | 1670 | 172 | 245 | 351 | 451 | 1010 | 1990 | 2270 | 3940 | 9360 |
| 2026-05-06 15:00 | 2.97 | 620 | 11700 (2022) | 169 (2000) | 1670 | 172 | 245 | 351 | 451 | 1010 | 1990 | 2270 | 3940 | 9360 |
| 2026-05-06 14:00 | 2.97 | 620 | 11700 (2022) | 169 (2000) | 1670 | 172 | 245 | 351 | 451 | 1010 | 1990 | 2270 | 3940 | 9360 |
| 2026-05-06 13:00 | 3.00 | 635 | 11700 (2022) | 169 (2000) | 1670 | 172 | 245 | 351 | 451 | 1010 | 1990 | 2270 | 3940 | 9360 |
| 2026-05-06 12:00 | 3.01 | 640 | 11700 (2022) | 169 (2000) | 1670 | 172 | 245 | 351 | 451 | 1010 | 1990 | 2270 | 3940 | 9360 |
| 2026-05-06 11:00 | 3.00 | 635 | 11700 (2022) | 169 (2000) | 1670 | 172 | 245 | 351 | 451 | 1010 | 1990 | 2270 | 3940 | 9360 |
| 2026-05-06 10:00 | 3.01 | 640 | 11700 (2022) | 169 (2000) | 1670 | 172 | 245 | 351 | 451 | 1010 | 1990 | 2270 | 3940 | 9360 |
| 2026-05-06 09:00 | 3.02 | 645 | 11700 (2022) | 169 (2000) | 1670 | 172 | 245 | 351 | 451 | 1010 | 1990 | 2270 | 3940 | 9360 |
| 2026-05-06 08:00 | 3.02 | 645 | 11700 (2022) | 169 (2000) | 1670 | 172 | 245 | 351 | 451 | 1010 | 1990 | 2270 | 3940 | 9360 |
| 2026-05-06 07:00 | 3.04 | 656 | 11700 (2022) | 169 (2000) | 1670 | 172 | 245 | 351 | 451 | 1010 | 1990 | 2270 | 3940 | 9360 |
| 2026-05-06 06:00 | 3.03 | 650 | 11700 (2022) | 169 (2000) | 1670 | 172 | 245 | 351 | 451 | 1010 | 1990 | 2270 | 3940 | 9360 |
| 2026-05-06 05:00 | 3.05 | 661 | 11700 (2022) | 169 (2000) | 1670 | 172 | 245 | 351 | 451 | 1010 | 1990 | 2270 | 3940 | 9360 |
| 2026-05-06 04:00 | 3.05 | 661 | 11700 (2022) | 169 (2000) | 1670 | 172 | 245 | 351 | 451 | 1010 | 1990 | 2270 | 3940 | 9360 |
| 2026-05-06 03:00 | 3.07 | 672 | 11700 (2022) | 169 (2000) | 1670 | 172 | 245 | 351 | 451 | 1010 | 1990 | 2270 | 3940 | 9360 |
| 2026-05-06 02:00 | 3.06 | 666 | 11700 (2022) | 169 (2000) | 1670 | 172 | 245 | 351 | 451 | 1010 | 1990 | 2270 | 3940 | 9360 |
| 2026-05-06 01:00 | 3.05 | 661 | 11700 (2022) | 169 (2000) | 1670 | 172 | 245 | 351 | 451 | 1010 | 1990 | 2270 | 3940 | 9360 |
| 2026-05-06 00:00 | 3.07 | 672 | 11700 (2022) | 169 (2000) | 1670 | 172 | 245 | 351 | 451 | 1010 | 1990 | 2270 | 3940 | 9360 |
| 2026-05-05 23:00 | 3.07 | 672 | 11700 (2022) | 169 (2000) | 1670 | 172 | 245 | 351 | 451 | 1010 | 1990 | 2270 | 3940 | 9360 |
| 2026-05-05 22:00 | 3.06 | 666 | 15000 (2017) | 168 (2000) | 2020 | 171 | 250 | 376 | 492 | 1210 | 2670 | 2980 | 4840 | 11600 |
| 2026-05-05 21:00 | 3.06 | 666 | 15000 (2017) | 168 (2000) | 2020 | 171 | 250 | 376 | 492 | 1210 | 2670 | 2980 | 4840 | 11600 |
| 2026-05-05 20:00 | 3.04 | 656 | 15000 (2017) | 168 (2000) | 2020 | 171 | 250 | 376 | 492 | 1210 | 2670 | 2980 | 4840 | 11600 |
| 2026-05-05 19:00 | 3.05 | 661 | 15000 (2017) | 168 (2000) | 2020 | 171 | 250 | 376 | 492 | 1210 | 2670 | 2980 | 4840 | 11600 |
| 2026-05-05 18:00 | 3.06 | 666 | 15000 (2017) | 168 (2000) | 2020 | 171 | 250 | 376 | 492 | 1210 | 2670 | 2980 | 4840 | 11600 |
| 2026-05-05 17:00 | 3.04 | 656 | 15000 (2017) | 168 (2000) | 2020 | 171 | 250 | 376 | 492 | 1210 | 2670 | 2980 | 4840 | 11600 |
| 2026-05-05 16:00 | 3.05 | 661 | 15000 (2017) | 168 (2000) | 2020 | 171 | 250 | 376 | 492 | 1210 | 2670 | 2980 | 4840 | 11600 |
| 2026-05-05 15:00 | 3.06 | 666 | 15000 (2017) | 168 (2000) | 2020 | 171 | 250 | 376 | 492 | 1210 | 2670 | 2980 | 4840 | 11600 |
| 2026-05-05 14:00 | 3.06 | 666 | 15000 (2017) | 168 (2000) | 2020 | 171 | 250 | 376 | 492 | 1210 | 2670 | 2980 | 4840 | 11600 |
| 2026-05-05 13:00 | 3.08 | 677 | 15000 (2017) | 168 (2000) | 2020 | 171 | 250 | 376 | 492 | 1210 | 2670 | 2980 | 4840 | 11600 |
| 2026-05-05 12:00 | 3.07 | 672 | 15000 (2017) | 168 (2000) | 2020 | 171 | 250 | 376 | 492 | 1210 | 2670 | 2980 | 4840 | 11600 |
| 2026-05-05 11:00 | 3.08 | 677 | 15000 (2017) | 168 (2000) | 2020 | 171 | 250 | 376 | 492 | 1210 | 2670 | 2980 | 4840 | 11600 |
| 2026-05-05 10:00 | 3.09 | 682 | 15000 (2017) | 168 (2000) | 2020 | 171 | 250 | 376 | 492 | 1210 | 2670 | 2980 | 4840 | 11600 |
| 2026-05-05 09:00 | 3.10 | 688 | 15000 (2017) | 168 (2000) | 2020 | 171 | 250 | 376 | 492 | 1210 | 2670 | 2980 | 4840 | 11600 |
| 2026-05-05 08:00 | 3.09 | 682 | 15000 (2017) | 168 (2000) | 2020 | 171 | 250 | 376 | 492 | 1210 | 2670 | 2980 | 4840 | 11600 |
| 2026-05-05 07:00 | 3.10 | 688 | 15000 (2017) | 168 (2000) | 2020 | 171 | 250 | 376 | 492 | 1210 | 2670 | 2980 | 4840 | 11600 |
| 2026-05-05 06:00 | 3.11 | 693 | 15000 (2017) | 168 (2000) | 2020 | 171 | 250 | 376 | 492 | 1210 | 2670 | 2980 | 4840 | 11600 |
| 2026-05-05 05:00 | 3.10 | 688 | 15000 (2017) | 168 (2000) | 2020 | 171 | 250 | 376 | 492 | 1210 | 2670 | 2980 | 4840 | 11600 |
| 2026-05-05 04:00 | 3.11 | 693 | 15000 (2017) | 168 (2000) | 2020 | 171 | 250 | 376 | 492 | 1210 | 2670 | 2980 | 4840 | 11600 |
| 2026-05-05 03:00 | 3.14 | 710 | 15000 (2017) | 168 (2000) | 2020 | 171 | 250 | 376 | 492 | 1210 | 2670 | 2980 | 4840 | 11600 |
| 2026-05-05 02:00 | 3.13 | 704 | 15000 (2017) | 168 (2000) | 2020 | 171 | 250 | 376 | 492 | 1210 | 2670 | 2980 | 4840 | 11600 |
| 2026-05-05 01:00 | 3.14 | 710 | 15000 (2017) | 168 (2000) | 2020 | 171 | 250 | 376 | 492 | 1210 | 2670 | 2980 | 4840 | 11600 |
| 2026-05-05 00:00 | 3.12 | 699 | 15000 (2017) | 168 (2000) | 2020 | 171 | 250 | 376 | 492 | 1210 | 2670 | 2980 | 4840 | 11600 |
| 2026-05-04 23:00 | 3.14 | 710 | 15000 (2017) | 168 (2000) | 2020 | 171 | 250 | 376 | 492 | 1210 | 2670 | 2980 | 4840 | 11600 |
| 2026-05-04 22:00 | 3.14 | 710 | 10300 (2017) | 167 (2000) | 1600 | 172 | 258 | 384 | 524 | 992 | 1960 | 2170 | 3640 | 8020 |
| 2026-05-04 21:00 | 3.14 | 710 | 10300 (2017) | 167 (2000) | 1600 | 172 | 258 | 384 | 524 | 992 | 1960 | 2170 | 3640 | 8020 |
| 2026-05-04 20:00 | 3.15 | 716 | 10300 (2017) | 167 (2000) | 1600 | 172 | 258 | 384 | 524 | 992 | 1960 | 2170 | 3640 | 8020 |
| 2026-05-04 19:00 | 3.16 | 721 | 10300 (2017) | 167 (2000) | 1600 | 172 | 258 | 384 | 524 | 992 | 1960 | 2170 | 3640 | 8020 |
| 2026-05-04 18:00 | 3.17 | 727 | 10300 (2017) | 167 (2000) | 1600 | 172 | 258 | 384 | 524 | 992 | 1960 | 2170 | 3640 | 8020 |
| 2026-05-04 17:00 | 3.18 | 733 | 10300 (2017) | 167 (2000) | 1600 | 172 | 258 | 384 | 524 | 992 | 1960 | 2170 | 3640 | 8020 |
| 2026-05-04 16:00 | 3.19 | 738 | 10300 (2017) | 167 (2000) | 1600 | 172 | 258 | 384 | 524 | 992 | 1960 | 2170 | 3640 | 8020 |
| 2026-05-04 15:00 | 3.18 | 733 | 10300 (2017) | 167 (2000) | 1600 | 172 | 258 | 384 | 524 | 992 | 1960 | 2170 | 3640 | 8020 |
| 2026-05-04 14:00 | 3.19 | 738 | 10300 (2017) | 167 (2000) | 1600 | 172 | 258 | 384 | 524 | 992 | 1960 | 2170 | 3640 | 8020 |
| 2026-05-04 13:00 | 3.19 | 738 | 10300 (2017) | 167 (2000) | 1600 | 172 | 258 | 384 | 524 | 992 | 1960 | 2170 | 3640 | 8020 |
| 2026-05-04 12:00 | 3.21 | 750 | 10300 (2017) | 167 (2000) | 1600 | 172 | 258 | 384 | 524 | 992 | 1960 | 2170 | 3640 | 8020 |
| 2026-05-04 11:00 | 3.22 | 756 | 10300 (2017) | 167 (2000) | 1600 | 172 | 258 | 384 | 524 | 992 | 1960 | 2170 | 3640 | 8020 |
| 2026-05-04 10:00 | 3.23 | 762 | 10300 (2017) | 167 (2000) | 1600 | 172 | 258 | 384 | 524 | 992 | 1960 | 2170 | 3640 | 8020 |
| 2026-05-04 09:00 | 3.24 | 767 | 10300 (2017) | 167 (2000) | 1600 | 172 | 258 | 384 | 524 | 992 | 1960 | 2170 | 3640 | 8020 |
| 2026-05-04 08:00 | 3.24 | 767 | 10300 (2017) | 167 (2000) | 1600 | 172 | 258 | 384 | 524 | 992 | 1960 | 2170 | 3640 | 8020 |
| 2026-05-04 07:00 | 3.23 | 762 | 10300 (2017) | 167 (2000) | 1600 | 172 | 258 | 384 | 524 | 992 | 1960 | 2170 | 3640 | 8020 |
| 2026-05-04 06:00 | 3.24 | 767 | 10300 (2017) | 167 (2000) | 1600 | 172 | 258 | 384 | 524 | 992 | 1960 | 2170 | 3640 | 8020 |
| 2026-05-04 05:00 | 3.26 | 779 | 10300 (2017) | 167 (2000) | 1600 | 172 | 258 | 384 | 524 | 992 | 1960 | 2170 | 3640 | 8020 |
| 2026-05-04 04:00 | 3.27 | 785 | 10300 (2017) | 167 (2000) | 1600 | 172 | 258 | 384 | 524 | 992 | 1960 | 2170 | 3640 | 8020 |
| 2026-05-04 03:00 | 3.27 | 785 | 10300 (2017) | 167 (2000) | 1600 | 172 | 258 | 384 | 524 | 992 | 1960 | 2170 | 3640 | 8020 |
| 2026-05-04 02:00 | 3.28 | 791 | 10300 (2017) | 167 (2000) | 1600 | 172 | 258 | 384 | 524 | 992 | 1960 | 2170 | 3640 | 8020 |
| 2026-05-04 01:00 | 3.28 | 791 | 10300 (2017) | 167 (2000) | 1600 | 172 | 258 | 384 | 524 | 992 | 1960 | 2170 | 3640 | 8020 |
| 2026-05-04 00:00 | 3.29 | 797 | 10300 (2017) | 167 (2000) | 1600 | 172 | 258 | 384 | 524 | 992 | 1960 | 2170 | 3640 | 8020 |
| 2026-05-03 23:00 | 3.30 | 804 | 10300 (2017) | 167 (2000) | 1600 | 172 | 258 | 384 | 524 | 992 | 1960 | 2170 | 3640 | 8020 |
| 2026-05-03 22:00 | 3.30 | 804 | 5380 (2011) | 168 (2000) | 1460 | 174 | 264 | 392 | 509 | 799 | 1850 | 2680 | 4150 | 5010 |
| 2026-05-03 21:00 | 3.30 | 804 | 5380 (2011) | 168 (2000) | 1460 | 174 | 264 | 392 | 509 | 799 | 1850 | 2680 | 4150 | 5010 |
| 2026-05-03 20:00 | 3.31 | 810 | 5380 (2011) | 168 (2000) | 1460 | 174 | 264 | 392 | 509 | 799 | 1850 | 2680 | 4150 | 5010 |
| 2026-05-03 19:00 | 3.33 | 822 | 5380 (2011) | 168 (2000) | 1460 | 174 | 264 | 392 | 509 | 799 | 1850 | 2680 | 4150 | 5010 |
| 2026-05-03 18:00 | 3.33 | 822 | 5380 (2011) | 168 (2000) | 1460 | 174 | 264 | 392 | 509 | 799 | 1850 | 2680 | 4150 | 5010 |
| 2026-05-03 17:00 | 3.34 | 828 | 5380 (2011) | 168 (2000) | 1460 | 174 | 264 | 392 | 509 | 799 | 1850 | 2680 | 4150 | 5010 |
| 2026-05-03 16:00 | 3.36 | 841 | 5380 (2011) | 168 (2000) | 1460 | 174 | 264 | 392 | 509 | 799 | 1850 | 2680 | 4150 | 5010 |
| 2026-05-03 15:00 | 3.36 | 841 | 5380 (2011) | 168 (2000) | 1460 | 174 | 264 | 392 | 509 | 799 | 1850 | 2680 | 4150 | 5010 |
| 2026-05-03 14:00 | 3.37 | 847 | 5380 (2011) | 168 (2000) | 1460 | 174 | 264 | 392 | 509 | 799 | 1850 | 2680 | 4150 | 5010 |
| 2026-05-03 13:00 | 3.37 | 847 | 5380 (2011) | 168 (2000) | 1460 | 174 | 264 | 392 | 509 | 799 | 1850 | 2680 | 4150 | 5010 |
| 2026-05-03 12:00 | 3.40 | 866 | 5380 (2011) | 168 (2000) | 1460 | 174 | 264 | 392 | 509 | 799 | 1850 | 2680 | 4150 | 5010 |
| 2026-05-03 11:00 | 3.39 | 860 | 5380 (2011) | 168 (2000) | 1460 | 174 | 264 | 392 | 509 | 799 | 1850 | 2680 | 4150 | 5010 |
| 2026-05-03 10:00 | 3.40 | 866 | 5380 (2011) | 168 (2000) | 1460 | 174 | 264 | 392 | 509 | 799 | 1850 | 2680 | 4150 | 5010 |
| 2026-05-03 09:00 | 3.40 | 866 | 5380 (2011) | 168 (2000) | 1460 | 174 | 264 | 392 | 509 | 799 | 1850 | 2680 | 4150 | 5010 |
| 2026-05-03 08:00 | 3.42 | 879 | 5380 (2011) | 168 (2000) | 1460 | 174 | 264 | 392 | 509 | 799 | 1850 | 2680 | 4150 | 5010 |
| 2026-05-03 07:00 | 3.43 | 886 | 5380 (2011) | 168 (2000) | 1460 | 174 | 264 | 392 | 509 | 799 | 1850 | 2680 | 4150 | 5010 |
| 2026-05-03 06:00 | 3.45 | 899 | 5380 (2011) | 168 (2000) | 1460 | 174 | 264 | 392 | 509 | 799 | 1850 | 2680 | 4150 | 5010 |
| 2026-05-03 05:00 | 3.45 | 899 | 5380 (2011) | 168 (2000) | 1460 | 174 | 264 | 392 | 509 | 799 | 1850 | 2680 | 4150 | 5010 |
| 2026-05-03 04:00 | 3.46 | 906 | 5380 (2011) | 168 (2000) | 1460 | 174 | 264 | 392 | 509 | 799 | 1850 | 2680 | 4150 | 5010 |
| 2026-05-03 03:00 | 3.47 | 913 | 5380 (2011) | 168 (2000) | 1460 | 174 | 264 | 392 | 509 | 799 | 1850 | 2680 | 4150 | 5010 |
| 2026-05-03 02:00 | 3.48 | 919 | 5380 (2011) | 168 (2000) | 1460 | 174 | 264 | 392 | 509 | 799 | 1850 | 2680 | 4150 | 5010 |
| 2026-05-03 01:00 | 3.49 | 926 | 5380 (2011) | 168 (2000) | 1460 | 174 | 264 | 392 | 509 | 799 | 1850 | 2680 | 4150 | 5010 |
| 2026-05-03 00:00 | 3.49 | 926 | 5380 (2011) | 168 (2000) | 1460 | 174 | 264 | 392 | 509 | 799 | 1850 | 2680 | 4150 | 5010 |
| 2026-05-02 23:00 | 3.51 | 940 | 5380 (2011) | 168 (2000) | 1460 | 174 | 264 | 392 | 509 | 799 | 1850 | 2680 | 4150 | 5010 |
A total of 182 rows are displayed for years 2000 through 2025.